Simultaneous Nadir Overpasses (SNOs) Predictions

Prediction of SNOs between NOAA-20 and AQUA Satellite Orbit:

Table of predicted SNOs for the next 14.0 days since TLE Epoch: 6/21/2019
Index Date (NOAA-20) Time (NOAA-20) Lat,Lon (NOAA-20) SZA (NOAA-20 ) Date (AQUA) Time (AQUA) Lat,Lon (AQUA) SZA (AQUA ) Distance(km) Time Diff (sec)
1 06/22/2019 05:56:16 -75.75, 149.07 105.30 06/22/2019 05:57:01 -75.74, 148.99 105.32 2.15 45
2 06/22/2019 06:46:40 76.66, -40.40 73.57 06/22/2019 06:46:07 76.66, -40.42 73.60 0.47 33
3 06/24/2019 22:13:06 -75.93, -94.56 105.46 06/24/2019 22:13:26 -75.93, -94.56 105.47 0.12 20
4 06/24/2019 23:03:30 76.83, 76.05 73.41 06/24/2019 23:02:32 76.84, 76.09 73.45 1.04 58
5 06/27/2019 13:39:36 74.89,-149.27 75.91 06/27/2019 13:40:47 74.90,-149.19 75.83 2.81 71
6 06/27/2019 14:29:55 -76.15, 21.98 105.62 06/27/2019 14:29:50 -76.16, 22.03 105.63 1.69 5
7 06/30/2019 05:56:13 75.64, -31.26 75.17 06/30/2019 05:57:00 75.64, -31.30 75.14 1.49 47
8 06/30/2019 06:46:35 -76.73, 139.88 106.20 06/30/2019 06:46:06 -76.72, 139.78 106.15 2.78 29
9 07/02/2019 22:13:01 75.91, 85.40 75.04 07/02/2019 22:13:23 75.91, 85.39 75.02 0.25 22
10 07/02/2019 23:03:24 -76.94,-103.50 106.27 07/02/2019 23:02:30 -76.94,-103.56 106.21 1.62 54
11 07/05/2019 13:40:12 -72.96, 26.00 101.24 07/05/2019 13:41:26 -72.90, 26.31 101.33 12.06 74
12 07/05/2019 14:29:49 76.18,-157.92 74.96 07/05/2019 14:29:46 76.18,-157.89 74.95 0.83 3




NCC Satellite Simultaneous Nadir Overpasses (SNOs) Prediction Service
